Regional Weather Roundup
Issued by NWS

Home | Current Version | Previous Version | Graphics & Text | Print | Product List | Glossary Off
Versions: 1 2 3 4 5 6 7 8 9 10 11 12 13 14 15 16 17 18 19 20 21 22 23 24 25 26 27 28 29 30 31 32 33 34 35 36 37 38 39 40 41 42 43 44 45 46 47 48 49 50

006
ASUS43 KLSX 261007
RWRMO

WEATHER SUMMARY FOR MISSOURI
NATIONAL WEATHER SERVICE SPRINGFIELD MO
500 AM CDT FRI AUG 26 2016

NOTE: "FAIR" INDICATES FEW OR NO CLOUDS BELOW 12,000 FEET WITH NO
       SIGNIFICANT WEATHER AND/OR OBSTRUCTIONS TO VISIBILITY.
       CURRENT SKY AND/OR WEATHER CONDITIONS ARE NOT AVAILABLE FOR
       CHILLICOTHE AND FARMINGTON.

MOZ001>031-035>038-043-044-053-054-261100-
...NORTHERN AND WESTERN MISSOURI...

CITY           SKY/WX    TMP DP  RH WIND       PRES   REMARKS
KANSAS CTY INT RAIN      68  65  90 E7        30.10R
KANSAS C DTWN  LGT RAIN  71  69  93 CALM      30.09F
LEE`S SUMMIT   RAIN      69  68  96 CALM      30.10F FOG
ST JOSEPH      LGT RAIN  66  65  96 N3        30.12R FOG
CHILLICOTHE      N/A     68  66  93 NE3       30.12S
KIRKSVILLE     LGT RAIN  68  65  90 CALM      30.15R

$$
MOZ066>068-077>081-088>096-101>105-261100-
...SOUTHWEST MISSOURI...

CITY           SKY/WX    TMP DP  RH WIND       PRES   REMARKS
SPRINGFIELD    FAIR      73  67  81 CALM      30.09R
JOPLIN         FAIR      70  68  93 NW3       30.08S
BRANSON          N/A     72  68  88 CALM      30.12R

$$
MOZ032>034-039>042-045>050-055>058-069>072-261100-
...CENTRAL MISSOURI...

CITY           SKY/WX    TMP DP  RH WIND       PRES   REMARKS
COLUMBIA       CLOUDY    73  72  96 N3        30.07F FOG
JEFFERSON CITY FAIR      72  71  97 CALM      30.06S
ROLLA          FAIR      71  67  87 CALM      30.08S
SEDALIA        CLOUDY    73  71  93 N6        30.08F FOG
WHITEMAN AFB   CLOUDY    70  70 100 N10       30.08S
OSAGE BEACH    FAIR      68  67  96 CALM      30.09S

$$
MOZ051-052-059>065-261100-
...EAST CENTRAL MISSOURI...

CITY           SKY/WX    TMP DP  RH WIND       PRES   REMARKS
ST LOUIS INTL  MOCLDY    76  69  79 E3        30.07S
SPIRIT OF STL  FAIR      73  71  93 CALM      30.05S
ST CHARLES     FAIR      72  72 100 N3        30.06R

$$
MOZ072>076-082>087-097>100-106>115-261100-
...SOUTH CENTRAL AND SOUTHEAST MISSOURI...

CITY           SKY/WX    TMP DP  RH WIND       PRES   REMARKS
CAPE GIRARDEAU FAIR      75  72  90 CALM      30.06R
FARMINGTON     FAIR      72  71  97 S3        30.09R
POPLAR BLUFF   FAIR      75  73  93 N3        30.06R FOG
WEST PLAINS    FAIR      74  70  87 CALM      30.12R

$$



USA.gov is the U.S. government's official web portal to all federal, state and local government web resources and services.